Flag for Switzerland Weather past 2 weeks in Schaffhausen, Schaffhausen, Switzerland

Now
77 °F

Pleasantly warm.


Feels Like: 78 °F
Forecast: 52 / 79 °F
Wind: 5 mph from Southeast

Location: Zurich-Kloten

Current Time: Jul 24, 2014 at 4:32:11 PM

Latest Report: Jul 24, 2014 at 3:00 PM


Visibility: N/A

Pressure: 29.84 "Hg

Humidity: 39%

Dew point: 50 °F

Location of SchaffhausenLocation

Historic Weather in Schaffhausen — Graph

°F

Schaffhausen temperature yesterday

Maximum temperature yesterday: 79 °F (at 6:00 PM)
Minimum temperature yesterday: 60 °F (at 6:00 AM)
Average temperature yesterday: 70 °F

Past Weeks' High & Low Weather Summary

 TemperatureHumidityPressure
High90 °F (Jul 19, 6:00 PM)100% (Jul 23, 1:00 AM)30.21 "Hg (Jul 23, 1:00 AM)
Low50 °F (Jul 10, 6:00 AM)24% (Jul 18, 5:00 PM)29.80 "Hg (Jul 19, 7:00 PM)
Average65 °F77%29.97 "Hg
* Reported Jul 9 3:00 PM — Jul 24 3:00 PM, Schaffhausen, Weather by CustomWeather, © 2014

Note: Actual official high and low records may vary slightly from our data, if they occured in-between our weather recording intervals... More about our weather records

Advertising

Schaffhausen weather history for previous 24 hours

 ConditionsComfort  
Time TempWeatherWind HumidityBarometerVisibility
3:00 PM
Jul 24
77 °FPleasantly warm.5 mph39%29.84 "HgN/A
2:00 PM76 °FPartly sunny.3 mph52%29.85 "Hg12 mi
1:00 PM74 °FMild.3 mph54%29.86 "HgN/A
12:00 PM72 °FMild.5 mph58%29.86 "HgN/A
11:00 AM71 °FScattered clouds.3 mph64%29.86 "Hg16 mi
10:00 AM68 °FMild.2 mph64%29.87 "HgN/A
9:00 AM66 °FMild.3 mph67%29.87 "HgN/A
8:00 AM64 °FPartly sunny.3 mph76%29.86 "Hg12 mi
7:00 AM60 °FCool.2 mph87%29.87 "HgN/A
6:00 AM59 °FCool.2 mph88%29.86 "HgN/A
5:00 AM59 °FPassing clouds.6 mph85%29.86 "Hg11 mi
4:00 AM61 °FCool.7 mph80%29.85 "HgN/A
3:00 AM59 °FCool.8 mph87%29.87 "HgN/A
2:00 AM62 °FPassing clouds.2 mph79%29.87 "Hg12 mi
1:00 AM63 °FMild.5 mph75%29.87 "HgN/A
12:00 AM64 °FMild.7 mph75%29.87 "HgN/A
11:00 PM
Jul 23
67 °FMild.6 mph70%29.88 "HgN/A
10:00 PM71 °FMild.7 mph58%29.86 "HgN/A
9:00 PM73 °FMild.7 mph56%29.85 "HgN/A
8:00 PM75 °FPartly sunny.9 mph54%29.84 "Hg14 mi
7:00 PM76 °FMild.14 mph51%29.84 "HgN/A
6:00 PM79 °FWarm.16 mph51%29.83 "HgN/A
5:00 PM78 °FOvercast.16 mph52%29.85 "Hg16 mi
4:00 PM77 °FWarm.13 mph57%29.85 "HgN/A
Weather by CustomWeather, © 2014

See weather overviewHow to use our weather pages